Location: Seven Kings
(51.5667°N, 0.1000°E)
Time: 02:50:58
(UTC+00:00)

Cosmos 1697 Rocket - Pass Details

Date: 29 October 2020
Orbit: 831 x 845 km, 71.0° (Epoch: 27 November)

Event Time Altitude Azimuth Distance (km) Brightness Sun altitude
Rises 17:08:16 0° 155° (SSE) 3,367 5.7 -5.4°
Reaches altitude 10° 17:11:35 10° 135° (SE) 2,441 4.8 -5.9°
Maximum altitude 17:14:54 16° 98° (E) 2,041 4.2 -6.4°
Drops below altitude 10° 17:18:13 10° 61° (ENE) 2,457 4.5 -6.9°
Enters shadow 17:19:51 - 50° (NE) 2,877 4.9 -7.2°
